Back to catalog

ORION 3

AliveCommunicationsMEO
NORAD 25727·PAYLOAD·🇺🇸 United States

Launched May 5, 1999 from Cape Canaveral Space Force Station

Loading…

Next Passes (next 24 hours)

TLE

FreshSource: Space-Track

Epoch: Sep 14, 2026, 13:34 UTC

1 25727U 99024A   26257.56588381  .00000096  00000-0  61674-3 0  9995
2 25727  19.8274  82.1371 0041310 199.3509 160.5248 10.39162336 78110

Track ORION 3 in real time with AllMySat

Download on the App Store